Regional Weather Roundup
Issued by NWS

Home | Current Version | Previous Version | Text Only | Print | Product List | Glossary On
Versions: 1 2 3 4 5 6 7 8 9 10 11 12 13 14 15 16 17 18 19 20 21 22 23 24 25 26 27 28 29 30 31 32 33 34 35 36 37 38 39 40 41 42 43 44 45 46 47 48 49 50
000
ASMX46 KSGX 290611
RWRMX

MEXICAN WEATHER ROUNDUP
NATIONAL WEATHER SERVICE SAN DIEGO CA
1100 PM PDT THU JUL 28 2016

BAJA CALIFORNIA

CITY           SKY/WX    TMP DP  RH WIND       PRES   REMARKS
ENSENADA NW      N/A     72  32  23 CALM      29.82S
LA PAZ           N/A    N/A N/A N/A MISG        N/A
MEXICALI       CLEAR     90  72  55 SE8       29.70  HX  96
S.J. DEL CABO  MOCLDY    81  72  74 SW2       29.89R
TIJUANA        PTCLDY    70  63  78 W7        29.89S

NORTHWESTERN MEXICO

CITY           SKY/WX    TMP DP  RH WIND       PRES   REMARKS
HERMOSILLO     CLOUDY    81  75  83 E6        29.91F

NORTHEASTERN MEXICO

CITY           SKY/WX    TMP DP  RH WIND       PRES   REMARKS
MONCLOVA         N/A    N/A N/A N/A MISG        N/A
MONTERREY      MOCLDY    81  68  65 E5        29.98S
REYNOSA          N/A    N/A N/A N/A MISG        N/A
SALTILLO       LGT RAIN  66  59  77 CALM      30.21S
VICTORIA         N/A    N/A N/A N/A MISG        N/A

WESTERN MEXICO

CITY           SKY/WX    TMP DP  RH WIND       PRES   REMARKS
AGUASCALIENTES   N/A    N/A N/A N/A MISG        N/A
COLIMA           N/A    N/A N/A N/A MISG        N/A
GUADALAJARA    CLOUDY    64  61  88 CALM      30.19
MAZATLAN       MOCLDY    79  77  94 NE3       29.89R
PTO. VALLARTA  PTCLDY    79  77  94 N5        29.88R
TEPIC            N/A    N/A N/A N/A MISG        N/A
URUAPAN          N/A    N/A N/A N/A MISG        N/A
ZACATECAS      TSTM      59  54  82 S5        30.33R

CENTRAL MEXICO

CITY           SKY/WX    TMP DP  RH WIND       PRES   REMARKS
CUERNAVACA       N/A    N/A N/A N/A MISG        N/A
LEON           PTCLDY    61  59  94 CALM      30.31R
MEXICO CITY    MOCLDY    61  52  72 NW6       30.37S
MORELIA        MOCLDY    59  57  94 CALM      30.26
POZA RICA        N/A    N/A N/A N/A MISG        N/A
QUERETARO      CLOUDY    57  57 100 NE7       30.35
S. LUIS POTOSI MOCLDY    63  54  72 E6        30.28S
TOLUCA         PTCLDY    52  50  93 W3        30.41F
VERACRUZ         N/A    N/A N/A N/A MISG        N/A

SOUTHERN MEXICO

CITY           SKY/WX    TMP DP  RH WIND       PRES   REMARKS
ACAPULCO       TSTM      75  75 100 N24       29.93R VSB 1
B. DE HUATULCO   N/A    N/A N/A N/A MISG        N/A
MINATITLAN       N/A    N/A N/A N/A MISG        N/A
PTO. ESCONDIDO   N/A    N/A N/A N/A MISG        N/A
TAPACHULA      PTCLDY    81  75  83 CALM      29.82

YUCATAN PENINSULA

CITY           SKY/WX    TMP DP  RH WIND       PRES   REMARKS
CAMPECHE         N/A    N/A N/A N/A MISG        N/A
CANCUN         PTCLDY    82  79  89 NE7       29.99F
CHETUMAL         N/A    N/A N/A N/A MISG        N/A
C. DEL CARMEN    N/A    N/A N/A N/A MISG        N/A
COZUMEL        PTCLDY    75  73  94 E3        29.99F
MERIDA         PTCLDY    77  75  94 CALM      29.98F

$$





USA.gov is the U.S. government's official web portal to all federal, state and local government web resources and services.